PRAETORIAN SDA_604

Last updated on Wed Sep 09 2026 00:03:45 GMT+0000 (Coordinated Universal Time)

1 65567U 25203C 26251.55439375 .00000043 00000+0 28286-4 0 9994 2 65567 81.3038 294.0668 0005065 346.8500 13.2524 13.83055737 50207
UTC large
Height (km)
Speed (km/s)
/
Latitude / Longitude
Inclination (degrees)
Orbital Period (minutes)
Azimuth
Elevation
Range (km)
Doppler Factor

Next 0 passes for location: London (51.5072 / 0.1276)

No passes found over London.
PRAETORIAN SDA_604